Voltar ao catálogo

STARLINK-32903

AtivoComunicaçõesVLEO
NORAD 63090·PAYLOAD·🇺🇸 United States

Lançado Feb 23, 2025 de Vandenberg Space Force Base

Loading…

Próximas Passagens (próximas 24 horas)

TLE

AtualizadoSource: CelesTrak SupGP

Época: Sep 14, 2026, 20:45 UTC

1 63090C 25037P   26257.86506944  .00058808  00000+0  20459-2 0  2576
2 63090  70.0004 235.9508 0003042 269.4847 212.7499 15.29547746    17

Acompanhe STARLINK-32903 em tempo real com AllMySat

Download on the App Store